Regional Weather Roundup
Issued by NWS

Home | Current Version | Previous Version | Graphics & Text | Print | Product List | Glossary On
Versions: 1 2 3 4 5 6 7 8 9 10 11 12 13 14 15 16 17 18 19 20 21 22 23 24 25 26 27 28 29 30 31 32 33 34 35 36 37 38 39 40 41 42 43 44 45 46 47 48 49 50
000
ASUS43 KLSX 040507
RWRMO

WEATHER SUMMARY FOR MISSOURI
NATIONAL WEATHER SERVICE SPRINGFIELD MO
1200 AM CDT MON MAY 04 2015

NOTE: "FAIR" INDICATES FEW OR NO CLOUDS BELOW 12,000 FEET WITH NO
       SIGNIFICANT WEATHER AND/OR OBSTRUCTIONS TO VISIBILITY.
       CURRENT SKY AND/OR WEATHER CONDITIONS ARE NOT AVAILABLE FOR
       CHILLICOTHE AND FARMINGTON.

MOZ001>031-035>038-043-044-053-054-040600-
...NORTHERN AND WESTERN MISSOURI...

CITY           SKY/WX    TMP DP  RH WIND       PRES   REMARKS
KANSAS CTY INT CLOUDY    71  58  63 S14       29.92R
KANSAS C DTWN  CLOUDY    73  56  54 S10       29.91R
LEE`S SUMMIT   MOCLDY    71  55  56 SW14G23   29.94R
ST JOSEPH      CLOUDY    70  59  68 S9        29.92R
CHILLICOTHE      N/A     72  58  61 S8        29.93R
KIRKSVILLE     CLOUDY    71  57  61 SW12      29.93R

$$
MOZ066>068-077>081-088>096-101>105-040600-
...SOUTHWEST MISSOURI...

CITY           SKY/WX    TMP DP  RH WIND       PRES   REMARKS
SPRINGFIELD    PTCLDY    67  55  65 S10       29.99R
JOPLIN         CLEAR     68  55  63 S10       29.98R

$$
MOZ032>034-039>042-045>050-055>058-069>072-040600-
...CENTRAL MISSOURI...

CITY           SKY/WX    TMP DP  RH WIND       PRES   REMARKS
COLUMBIA       PTCLDY    65  55  70 S7        29.98R
JEFFERSON CITY CLEAR     70  54  56 E3        29.97R
ROLLA          CLEAR     69  54  58 S14       29.98R
SEDALIA        MOCLDY    67  56  67 SW5       29.97R
WHITEMAN AFB   MOCLDY    69  58  67 SW9       29.95R
WARRENSBURG    MOCLDY    68  55  64 S6        29.95R
OSAGE BEACH    CLEAR     68  52  56 S5        29.99R

$$
MOZ051-052-059>065-040600-
...EAST CENTRAL MISSOURI...

CITY           SKY/WX    TMP DP  RH WIND       PRES   REMARKS
ST LOUIS INTL  MOCLDY    74  51  44 S8        29.98R
SPIRIT OF STL  FAIR      71  52  50 S9        29.97R
ST CHARLES     CLEAR     68  51  54 S5        29.97R

$$
MOZ072>076-082>087-097>100-106>115-040600-
...SOUTH CENTRAL AND SOUTHEAST MISSOURI...

CITY           SKY/WX    TMP DP  RH WIND       PRES   REMARKS
CAPE GIRARDEAU PTCLDY    68  48  48 S12       30.02F
FARMINGTON     CLEAR     64  52  63 S8        30.05S
POPLAR BLUFF   CLEAR     65  53  65 S5        30.01F
WEST PLAINS    CLEAR     68  52  56 S7        30.03S

$$


USA.gov is the U.S. government's official web portal to all federal, state and local government web resources and services.